Time,TemperatureF,DewpointF,PressureIn,WindDirection,WindDirectionDegrees,WindSpeedMPH,WindSpeedGustMPH,Humidity,HourlyPrecipIn,Conditions,Clouds,dailyrainin,SoftwareType,DateUTC
2013-10-18 00:09:00,69.3,66.2,29.87,SW,219,5.0,5.0,90,0.00,,,0.00,Wunderground v.1.15,2013-10-18 04:09:00,
2013-10-18 00:14:00,69.4,66.3,29.87,SW,217,4.0,5.0,90,0.00,,,0.00,Wunderground v.1.15,2013-10-18 04:14:00,
2013-10-18 00:24:00,69.2,66.1,29.87,WSW,256,3.0,3.0,90,0.00,,,0.00,Wunderground v.1.15,2013-10-18 04:24:00,
2013-10-18 00:28:00,69.1,66.0,29.87,SW,235,3.0,3.0,90,0.00,,,0.00,Wunderground v.1.15,2013-10-18 04:28:00,
2013-10-18 00:34:00,69.0,65.9,29.87,WSW,242,3.0,4.0,90,0.00,,,0.00,Wunderground v.1.15,2013-10-18 04:34:00,
2013-10-18 00:49:00,68.7,66.0,29.87,WSW,245,3.0,3.0,91,0.00,,,0.00,Wunderground v.1.15,2013-10-18 04:49:00,
2013-10-18 01:04:00,68.4,66.0,29.87,WSW,245,1.0,1.0,92,0.00,,,0.00,Wunderground v.1.15,2013-10-18 05:04:00,
2013-10-18 01:19:00,68.1,65.7,29.87,WSW,245,0.0,0.0,92,0.00,,,0.00,Wunderground v.1.15,2013-10-18 05:19:00,
2013-10-18 01:29:00,67.8,65.7,29.87,WSW,245,0.0,1.0,93,0.00,,,0.00,Wunderground v.1.15,2013-10-18 05:29:00,
2013-10-18 01:44:00,67.4,65.3,29.87,WSW,245,0.0,0.0,93,0.00,,,0.00,Wunderground v.1.15,2013-10-18 05:44:00,
2013-10-18 01:59:00,66.8,65.0,29.87,WSW,245,0.0,0.0,94,0.00,,,0.00,Wunderground v.1.15,2013-10-18 05:59:00,
2013-10-18 02:14:00,66.5,64.7,29.87,WSW,245,0.0,0.0,94,0.00,,,0.00,Wunderground v.1.15,2013-10-18 06:14:00,
2013-10-18 02:29:00,66.5,64.7,29.87,WSW,245,0.0,0.0,94,0.00,,,0.00,Wunderground v.1.15,2013-10-18 06:29:00,
2013-10-18 02:39:00,66.5,64.7,29.87,WSW,245,0.0,0.0,94,0.00,,,0.00,Wunderground v.1.15,2013-10-18 06:39:00,
2013-10-18 02:54:00,66.4,64.9,29.87,WSW,245,0.0,0.0,95,0.00,,,0.00,Wunderground v.1.15,2013-10-18 06:54:00,
2013-10-18 03:09:00,66.6,65.1,29.87,WSW,245,0.0,0.0,95,0.00,,,0.00,Wunderground v.1.15,2013-10-18 07:09:00,
2013-10-18 03:19:00,66.6,65.1,29.87,WSW,245,0.0,0.0,95,0.00,,,0.00,Wunderground v.1.15,2013-10-18 07:19:00,
2013-10-18 03:34:00,66.8,65.3,29.87,WSW,245,0.0,0.0,95,0.00,,,0.00,Wunderground v.1.15,2013-10-18 07:34:00,
2013-10-18 03:49:00,66.8,65.3,29.87,WSW,245,0.0,0.0,95,0.00,,,0.00,Wunderground v.1.15,2013-10-18 07:49:00,
2013-10-18 03:59:00,66.8,65.3,29.87,WSW,245,0.0,0.0,95,0.00,,,0.00,Wunderground v.1.15,2013-10-18 07:59:00,
2013-10-18 04:08:00,66.7,65.2,29.87,WSW,245,0.0,0.0,95,0.00,,,0.00,Wunderground v.1.15,2013-10-18 08:08:00,
2013-10-18 04:19:00,66.6,65.1,29.87,WSW,245,0.0,0.0,95,0.00,,,0.00,Wunderground v.1.15,2013-10-18 08:19:00,
2013-10-18 04:29:00,66.5,65.0,29.87,WSW,245,0.0,0.0,95,0.00,,,0.00,Wunderground v.1.15,2013-10-18 08:29:00,
2013-10-18 04:44:00,66.5,65.0,29.87,WSW,245,0.0,0.0,95,0.00,,,0.00,Wunderground v.1.15,2013-10-18 08:44:00,
2013-10-18 04:59:00,66.5,65.0,29.87,WSW,245,0.0,0.0,95,0.00,,,0.00,Wunderground v.1.15,2013-10-18 08:59:00,
2013-10-18 05:14:00,66.8,65.3,29.88,WSW,245,0.0,0.0,95,0.00,,,0.00,Wunderground v.1.15,2013-10-18 09:14:00,
2013-10-18 05:29:00,66.9,65.4,29.88,WSW,245,0.0,0.0,95,0.00,,,0.00,Wunderground v.1.15,2013-10-18 09:29:00,
2013-10-18 05:39:00,67.1,65.6,29.88,WSW,245,0.0,0.0,95,0.00,,,0.00,Wunderground v.1.15,2013-10-18 09:39:00,
2013-10-18 05:54:00,66.9,65.4,29.89,WSW,245,0.0,0.0,95,0.00,,,0.00,Wunderground v.1.15,2013-10-18 09:54:00,
2013-10-18 06:09:00,67.3,65.8,29.89,WSW,245,0.0,0.0,95,0.00,,,0.00,Wunderground v.1.15,2013-10-18 10:09:00,
2013-10-18 06:19:00,67.2,65.7,29.89,WSW,245,0.0,0.0,95,0.00,,,0.00,Wunderground v.1.15,2013-10-18 10:19:00,
2013-10-18 06:34:00,67.5,66.0,29.89,WSW,245,0.0,0.0,95,0.00,,,0.00,Wunderground v.1.15,2013-10-18 10:34:00,
2013-10-18 06:49:00,67.5,66.0,29.89,WSW,245,0.0,0.0,95,0.00,,,0.00,Wunderground v.1.15,2013-10-18 10:49:00,
2013-10-18 06:59:00,67.5,66.0,29.90,WSW,245,0.0,0.0,95,0.00,,,0.00,Wunderground v.1.15,2013-10-18 10:59:00,
2013-10-18 07:08:00,67.6,66.1,29.89,WSW,245,0.0,0.0,95,0.00,,,0.00,Wunderground v.1.15,2013-10-18 11:08:00,
2013-10-18 07:14:00,67.7,66.2,29.89,WSW,245,0.0,0.0,95,0.00,,,0.00,Wunderground v.1.15,2013-10-18 11:14:00,
2013-10-18 07:29:00,67.9,66.1,29.90,WSW,245,0.0,0.0,94,0.00,,,0.00,Wunderground v.1.15,2013-10-18 11:29:00,
2013-10-18 07:44:00,68.1,66.6,29.90,WSW,245,0.0,0.0,95,0.00,,,0.00,Wunderground v.1.15,2013-10-18 11:44:00,
2013-10-18 07:54:00,68.1,66.3,29.91,WSW,245,0.0,0.0,94,0.00,,,0.00,Wunderground v.1.15,2013-10-18 11:54:00,
2013-10-18 08:04:00,68.4,66.6,29.91,WSW,245,0.0,0.0,94,0.00,,,0.00,Wunderground v.1.15,2013-10-18 12:04:00,
2013-10-18 08:14:00,68.7,66.9,29.92,WSW,245,0.0,0.0,94,0.00,,,0.00,Wunderground v.1.15,2013-10-18 12:14:00,
2013-10-18 08:24:00,69.3,67.5,29.92,WSW,245,0.0,0.0,94,0.00,,,0.00,Wunderground v.1.15,2013-10-18 12:24:00,
2013-10-18 08:39:00,69.9,68.1,29.92,WSW,245,1.0,1.0,94,0.00,,,0.00,Wunderground v.1.15,2013-10-18 12:39:00,
2013-10-18 08:54:00,70.2,68.4,29.92,WSW,245,0.0,0.0,94,0.00,,,0.00,Wunderground v.1.15,2013-10-18 12:54:00,
2013-10-18 09:09:00,70.5,68.4,29.94,WSW,245,0.0,1.0,93,0.00,,,0.00,Wunderground v.1.15,2013-10-18 13:09:00,
2013-10-18 09:39:00,71.4,69.0,29.94,SE,126,0.0,0.0,92,0.00,,,0.00,Wunderground v.1.15,2013-10-18 13:39:00,
2013-10-18 09:54:00,71.7,68.9,29.94,NNE,28,0.0,0.0,91,0.00,,,0.00,Wunderground v.1.15,2013-10-18 13:54:00,
2013-10-18 10:09:00,71.7,68.6,29.95,North,5,0.0,0.0,90,0.00,,,0.00,Wunderground v.1.15,2013-10-18 14:09:00,
2013-10-18 10:24:00,72.1,69.0,29.95,SW,222,0.0,0.0,90,0.00,,,0.00,Wunderground v.1.15,2013-10-18 14:24:00,
2013-10-18 10:34:00,72.9,69.5,29.95,SSE,166,0.0,0.0,89,0.00,,,0.00,Wunderground v.1.15,2013-10-18 14:34:00,
2013-10-18 10:49:00,73.3,69.5,29.95,SSE,157,0.0,0.0,88,0.00,,,0.00,Wunderground v.1.15,2013-10-18 14:49:00,
2013-10-18 11:04:00,73.8,69.7,29.95,East,98,1.0,2.0,87,0.00,,,0.00,Wunderground v.1.15,2013-10-18 15:04:00,
2013-10-18 11:14:00,74.3,69.8,29.95,East,97,1.0,1.0,86,0.00,,,0.00,Wunderground v.1.15,2013-10-18 15:14:00,
2013-10-18 11:29:00,74.1,69.6,29.95,ESE,111,1.0,2.0,86,0.00,,,0.00,Wunderground v.1.15,2013-10-18 15:29:00,
2013-10-18 11:44:00,74.5,69.7,29.95,ESE,123,3.0,4.0,85,0.00,,,0.00,Wunderground v.1.15,2013-10-18 15:44:00,
2013-10-18 11:59:00,74.9,69.7,29.94,ESE,103,3.0,4.0,84,0.00,,,0.00,Wunderground v.1.15,2013-10-18 15:59:00,
2013-10-18 12:14:00,75.2,69.3,29.94,SSE,160,4.0,4.0,82,0.00,,,0.00,Wunderground v.1.15,2013-10-18 16:14:00,
2013-10-18 12:29:00,75.2,69.3,29.94,ESE,114,3.0,3.0,82,0.00,,,0.00,Wunderground v.1.15,2013-10-18 16:29:00,
2013-10-18 12:39:00,74.9,69.4,29.93,ESE,107,3.0,3.0,83,0.00,,,0.00,Wunderground v.1.15,2013-10-18 16:39:00,
2013-10-18 12:54:00,75.5,69.6,29.93,ESE,107,2.0,4.0,82,0.00,,,0.00,Wunderground v.1.15,2013-10-18 16:54:00,
2013-10-18 13:09:00,75.9,70.0,29.92,East,94,3.0,3.0,82,0.00,,,0.00,Wunderground v.1.15,2013-10-18 17:09:00,
2013-10-18 13:24:00,75.9,70.0,29.91,ESE,117,2.0,4.0,82,0.00,,,0.00,Wunderground v.1.15,2013-10-18 17:24:00,
2013-10-18 13:34:00,76.1,70.6,29.91,East,89,3.0,3.0,83,0.00,,,0.00,Wunderground v.1.15,2013-10-18 17:34:00,
2013-10-18 13:49:00,76.4,70.9,29.91,SE,128,2.0,2.0,83,0.00,,,0.00,Wunderground v.1.15,2013-10-18 17:49:00,
2013-10-18 14:04:00,76.6,70.7,29.90,SSE,164,4.0,4.0,82,0.00,,,0.00,Wunderground v.1.15,2013-10-18 18:04:00,
2013-10-18 14:19:00,76.7,70.8,29.89,ESE,107,4.0,4.0,82,0.00,,,0.00,Wunderground v.1.15,2013-10-18 18:19:00,
2013-10-18 14:34:00,76.0,70.1,29.90,SE,142,3.0,3.0,82,0.00,,,0.00,Wunderground v.1.15,2013-10-18 18:34:00,
2013-10-18 14:44:00,76.4,70.5,29.89,SSE,163,3.0,5.0,82,0.00,,,0.00,Wunderground v.1.15,2013-10-18 18:44:00,
2013-10-18 14:59:00,76.2,70.3,29.89,ESE,115,3.0,4.0,82,0.00,,,0.00,Wunderground v.1.15,2013-10-18 18:59:00,
2013-10-18 15:14:00,76.2,70.7,29.89,ESE,110,3.0,3.0,83,0.00,,,0.00,Wunderground v.1.15,2013-10-18 19:14:00,
2013-10-18 15:29:00,76.6,71.0,29.89,ESE,109,3.0,5.0,83,0.00,,,0.00,Wunderground v.1.15,2013-10-18 19:29:00,
2013-10-18 15:39:00,76.2,70.7,29.89,ESE,110,4.0,4.0,83,0.00,,,0.00,Wunderground v.1.15,2013-10-18 19:39:00,
2013-10-18 15:48:00,75.9,70.4,29.89,ESE,106,3.0,5.0,83,0.00,,,0.00,Wunderground v.1.15,2013-10-18 19:48:00,
2013-10-18 15:54:00,75.6,70.4,29.89,ESE,117,4.0,4.0,84,0.00,,,0.00,Wunderground v.1.15,2013-10-18 19:54:00,
2013-10-18 16:04:00,75.6,70.8,29.89,SE,124,3.0,5.0,85,0.00,,,0.00,Wunderground v.1.15,2013-10-18 20:04:00,
2013-10-18 16:14:00,74.5,69.3,29.90,NNE,13,2.0,4.0,84,0.00,,,0.00,Wunderground v.1.15,2013-10-18 20:14:00,
2013-10-18 16:24:00,73.0,68.6,29.89,NE,45,3.0,3.0,86,0.00,,,0.00,Wunderground v.1.15,2013-10-18 20:24:00,
2013-10-18 16:39:00,71.0,67.6,29.90,North,10,3.0,3.0,89,0.00,,,0.00,Wunderground v.1.15,2013-10-18 20:39:00,
2013-10-18 16:54:00,69.2,66.8,29.90,NE,40,3.0,3.0,92,0.00,,,0.01,Wunderground v.1.15,2013-10-18 20:54:00,
2013-10-18 17:09:00,68.7,66.6,29.90,NNE,17,3.0,4.0,93,0.00,,,0.01,Wunderground v.1.15,2013-10-18 21:09:00,
2013-10-18 17:19:00,68.5,66.7,29.90,NE,45,3.0,9.0,94,0.00,,,0.01,Wunderground v.1.15,2013-10-18 21:19:00,
2013-10-18 17:34:00,68.0,66.2,29.91,NNE,14,4.0,4.0,94,0.00,,,0.01,Wunderground v.1.15,2013-10-18 21:34:00,
2013-10-18 17:49:00,67.4,65.6,29.91,NNE,31,4.0,4.0,94,0.00,,,0.01,Wunderground v.1.15,2013-10-18 21:49:00,
2013-10-18 18:04:00,67.2,65.4,29.91,NE,46,3.0,3.0,94,0.00,,,0.01,Wunderground v.1.15,2013-10-18 22:04:00,
2013-10-18 18:19:00,66.9,65.1,29.91,NE,42,4.0,4.0,94,0.00,,,0.01,Wunderground v.1.15,2013-10-18 22:19:00,
2013-10-18 18:29:00,66.5,64.7,29.92,NNE,18,4.0,4.0,94,0.00,,,0.01,Wunderground v.1.15,2013-10-18 22:29:00,
2013-10-18 18:44:00,66.3,64.5,29.92,NE,45,3.0,3.0,94,0.00,,,0.01,Wunderground v.1.15,2013-10-18 22:44:00,
2013-10-18 18:59:00,65.8,63.7,29.93,NNE,32,4.0,4.0,93,0.00,,,0.01,Wunderground v.1.15,2013-10-18 22:59:00,
2013-10-18 19:14:00,65.5,63.4,29.92,ENE,63,3.0,3.0,93,0.00,,,0.01,Wunderground v.1.15,2013-10-18 23:14:00,
2013-10-18 19:29:00,65.4,63.6,29.93,ENE,64,2.0,3.0,94,0.00,,,0.01,Wunderground v.1.15,2013-10-18 23:29:00,
2013-10-18 19:39:00,65.5,63.7,29.93,NE,51,2.0,2.0,94,0.00,,,0.01,Wunderground v.1.15,2013-10-18 23:39:00,
2013-10-18 19:54:00,65.3,63.5,29.93,ENE,62,2.0,2.0,94,0.00,,,0.01,Wunderground v.1.15,2013-10-18 23:54:00,
2013-10-18 20:09:00,65.3,63.5,29.93,East,98,2.0,2.0,94,0.00,,,0.01,Wunderground v.1.15,2013-10-19 00:09:00,
2013-10-18 20:19:00,65.2,63.4,29.93,NE,39,3.0,3.0,94,0.00,,,0.01,Wunderground v.1.15,2013-10-19 00:19:00,
2013-10-18 20:34:00,65.2,63.7,29.93,NE,51,1.0,1.0,95,0.00,,,0.01,Wunderground v.1.15,2013-10-19 00:34:00,
2013-10-18 20:49:00,65.2,63.7,29.94,NE,44,1.0,1.0,95,0.00,,,0.01,Wunderground v.1.15,2013-10-19 00:49:00,
2013-10-18 20:59:00,65.1,63.6,29.93,NNE,30,1.0,2.0,95,0.00,,,0.02,Wunderground v.1.15,2013-10-19 00:59:00,
2013-10-18 21:14:00,64.9,63.4,29.93,NE,55,2.0,2.0,95,0.04,,,0.03,Wunderground v.1.15,2013-10-19 01:14:00,
2013-10-18 21:29:00,64.8,63.3,29.93,NNE,26,2.0,4.0,95,0.00,,,0.03,Wunderground v.1.15,2013-10-19 01:29:00,
2013-10-18 21:44:00,64.4,62.9,29.94,NNE,28,1.0,1.0,95,0.44,,,0.06,Wunderground v.1.15,2013-10-19 01:44:00,
2013-10-18 21:59:00,64.2,62.7,29.94,NE,37,0.0,0.0,95,0.05,,,0.08,Wunderground v.1.15,2013-10-19 01:59:00,
2013-10-18 22:09:00,64.2,63.0,29.94,NE,38,0.0,0.0,96,0.15,,,0.14,Wunderground v.1.15,2013-10-19 02:09:00,
2013-10-18 22:24:00,64.1,62.9,29.93,East,82,0.0,0.0,96,0.04,,,0.14,Wunderground v.1.15,2013-10-19 02:24:00,
2013-10-18 22:39:00,63.9,62.7,29.94,NE,44,0.0,0.0,96,0.00,,,0.14,Wunderground v.1.15,2013-10-19 02:39:00,
2013-10-18 22:54:00,63.9,62.7,29.94,NE,44,1.0,1.0,96,0.00,,,0.14,Wunderground v.1.15,2013-10-19 02:54:00,
2013-10-18 23:04:00,63.9,62.7,29.93,NE,44,1.0,1.0,96,0.00,,,0.15,Wunderground v.1.15,2013-10-19 03:04:00,
2013-10-18 23:19:00,63.9,62.7,29.92,East,94,1.0,1.0,96,0.00,,,0.15,Wunderground v.1.15,2013-10-19 03:19:00,
2013-10-18 23:34:00,63.8,62.6,29.93,East,87,1.0,1.0,96,0.00,,,0.15,Wunderground v.1.15,2013-10-19 03:34:00,
2013-10-18 23:44:00,63.9,62.7,29.92,East,88,0.0,0.0,96,0.00,,,0.15,Wunderground v.1.15,2013-10-19 03:44:00,
2013-10-18 23:59:00,63.8,62.6,29.92,East,88,0.0,0.0,96,0.00,,,0.15,Wunderground v.1.15,2013-10-19 03:59:00,